#timestamp,LO_Frequency,Hit,StdDev 
1672268415.6,286047000.8,N
1672268435.5,286047000.2,N
1672268455.3,286047001.0,N
1672268475.2,286047000.1,N
1672268495.9,286046999.9,N
1672268515.7,286047000.1,N
1672268535.6,286047000.0,N
1672268555.4,286047001.1,N
1672268575.2,286046999.3,N
1672268595.1,286046999.1,N
1672268596.0,286046999.1,N
1672268615.8,286046999.2,N
1672268635.7,286046998.3,N
1672268655.5,286046998.9,N
1672268675.3,286046999.8,N
1672268695.2,286046999.9,N
1672268715.0,286046998.2,N
1672268715.9,286046998.2,N
1672268735.7,286046999.3,N
1672268755.6,286046998.7,N
1672268775.4,286046998.5,N
1672268795.3,286047000.2,N
1672268815.1,286046999.4,N
1672268816.0,286046999.4,N
1672268835.8,286046999.0,N
1672268855.7,286046998.9,N
1672268875.5,286047000.6,N
1672268895.3,286046998.6,N
1672268915.2,286047000.7,N
1672268935.0,286046998.6,N
1672268935.9,286046998.6,N
1672268955.8,286046998.7,N
1672268975.6,286047001.2,N
1672268995.4,286046998.7,N
1672269015.3,286046996.9,Y
1672269035.1,286046998.1,P
1672269055.9,286046999.1,N
1672269075.7,286046998.8,N
1672269095.5,286046998.2,Y
1672269115.4,286047000.7,P
1672269135.2,286047000.5,N
1672269155.0,286047001.0,N
1672269155.9,286047001.0,N
1672269175.8,286047001.1,N
1672269195.6,286047000.3,N
1672269215.5,286047000.0,N
1672269235.3,286047000.1,N
1672269255.1,286047000.2,N
1672269275.9,286047000.2,N
1672269295.7,286047002.7,Y
1672269315.6,286047000.3,P
1672269335.4,286046996.6,P
1672269355.2,286046996.6,N
1672269375.1,286046996.6,N
1672269376.0,286046996.6,N
1672269395.8,286046998.8,N
1672269415.7,286047000.7,N
1672269435.5,286047000.9,N
1672269455.3,286047000.1,N
1672269475.2,286047000.0,N
1672269495.0,286047002.5,N
1672269495.9,286047002.5,N
1672269515.8,286047004.0,N
1672269535.6,286047003.9,N
1672269555.4,286047002.1,N
1672269575.3,286047002.8,N
1672269595.1,286047002.2,N
1672269615.8,286047002.4,N
1672269635.7,286047002.8,N
1672269655.5,286047002.0,N
1672269675.4,286047002.3,N
1672269695.2,286047002.6,N
1672269715.0,286047004.2,N
1672269715.9,286047004.2,N
1672269735.8,286047001.9,N
1672269755.6,286046999.8,N
1672269775.4,286047001.9,N
1672269795.3,286047001.8,N
1672269815.1,286047001.6,N
1672269835.9,286047004.1,N
1672269855.7,286047004.3,N
1672269875.5,286047003.6,N
1672269895.4,286047003.1,N
1672269915.2,286047006.0,Y
1672269935.0,286047001.0,P
1672269936.0,286047001.0,N
1672269955.8,286046998.7,P
1672269975.6,286046998.2,N
1672269995.5,286046998.6,N
1672270015.3,286046998.2,N
1672270035.1,286046999.2,N
1672270055.9,286046996.9,N
1672270075.7,286046999.0,N
1672270095.6,286047000.1,N
1672270115.4,286046998.5,N
1672270135.2,286046998.3,N
1672270155.1,286046998.4,N
1672270156.0,286046998.4,N
1672270175.8,286046996.5,N
1672270195.7,286046999.5,N
1672270215.5,286047001.0,N
1672270235.3,286046999.3,N
1672270255.2,286046996.9,N
1672270275.9,286046997.3,N
1672270295.7,286046998.1,N
1672270315.6,286047000.3,N
1672270335.4,286046998.1,N
1672270355.2,286046998.5,N
1672270375.1,286047000.8,N
1672270376.0,286047000.8,N
1672270395.8,286047000.9,N
1672270415.7,286047001.0,N
1672270435.5,286046998.6,N
1672270455.4,286046999.4,N
1672270475.2,286047001.0,N
1672270495.0,286046999.4,N
1672270495.9,286046999.4,N
1672270515.8,286046999.1,N
1672270535.6,286046998.6,N
1672270555.4,286046996.6,N
1672270575.3,286046996.7,N
1672270595.1,286046998.7,N
1672270615.9,286046998.7,N
1672270635.7,286047000.8,N
1672270655.5,286046999.2,N
1672270675.4,286046998.3,N
1672270695.2,286047000.5,N
1672270715.1,286046998.2,N
1672270716.0,286046998.2,N
1672270735.8,286046998.2,N
1672270755.6,286046998.6,N
1672270775.5,286047000.5,N
1672270795.3,286047000.3,N
1672270815.2,286047000.4,N
1672270835.9,286047000.7,N
1672270855.7,286047000.2,N
1672270875.6,286047001.2,N
1672270895.4,286046998.3,N
1672270915.2,286046998.1,N
1672270935.1,286046998.5,N
1672270936.0,286046998.5,N
1672270955.8,286046998.7,N
1672270975.7,286046998.8,N
1672270995.5,286047001.1,N
1672271015.3,286047002.8,N
1672271035.2,286047000.2,N
1672271055.0,286047000.7,N
1672271055.9,286047000.7,N
1672271075.8,286047001.0,N
1672271095.6,286047000.0,N
1672271115.4,286047000.0,N
1672271135.3,286047000.3,N
1672271155.1,286047001.2,N
1672271175.9,286046998.4,N
1672271195.7,286046999.2,N
1672271215.5,286046998.5,N
1672271235.4,286047001.0,N
1672271255.2,286047002.7,N
1672271275.0,286047002.1,N
1672271276.0,286047002.1,N
1672271295.8,286047002.7,N
1672271315.6,286047000.9,N
1672271335.5,286047000.5,N
1672271355.3,286047000.3,N
1672271375.2,286047000.3,N
1672271395.9,286047000.9,N
1672271415.7,286047001.1,N
1672271435.6,286046999.3,N
1672271455.4,286047002.3,N
1672271475.2,286047002.7,N
1672271495.1,286047000.9,N
1672271496.0,286047000.9,N
1672271515.8,286046998.1,N
1672271535.7,286047001.1,N
1672271555.5,286046999.9,N
1672271575.3,286047002.4,N
1672271595.2,286047002.6,N
1672271615.0,286046998.4,N
1672271615.9,286046998.4,N
1672271635.8,286046998.9,N
1672271655.6,286046998.2,N
1672271675.4,286046996.9,N
1672271695.3,286046999.3,N
1672271715.1,286047001.1,N
1672271735.8,286047000.3,N
1672271755.7,286047002.7,N
1672271775.5,286047002.5,N
1672271795.4,286047000.4,N
1672271815.2,286046998.1,N
1672271835.0,286046998.4,N
1672271835.9,286046998.4,N
1672271855.8,286047000.3,N
1672271875.6,286046998.1,N
1672271895.5,286047002.8,N
1672271915.3,286047002.7,N
1672271935.1,286047000.9,N
1672271955.9,286046998.6,N
1672271975.7,286047001.2,N
1672271995.5,286046998.2,N
